Location: Rounton
(54.4000°N, 1.3500°W)
Time: 09:17:08
(UTC+00:00)

Transit 2A Rocket - All Passes

Search period start: 25 February 2024 00:00
Search period end: 06 March 2024 00:00
Orbit: 591 x 904 km, 66.7° (Epoch: 24 February)

Date Brightness Start Highest point End Pass type
(mag) Time Alt. Az. Time Alt. Az. Time Alt. Az.
25 Feb - 01:14:26 10° S 01:18:23 36° ESE 01:22:28 10° NE visible
25 Feb - 02:56:33 10° WSW 03:00:45 46° NW 03:05:10 10° NE visible
25 Feb - 04:40:56 10° WNW 04:44:18 20° NNW 04:47:49 10° NE visible
25 Feb - 06:24:53 10° NW 06:28:21 20° NNE 06:32:01 10° ENE visible
25 Feb - 08:07:24 10° NW 08:11:57 43° NE 08:16:53 10° ESE daylight
25 Feb - 09:49:49 10° NW 09:54:34 51° WSW 09:59:44 10° SSE daylight
25 Feb - 11:35:25 10° W 11:36:07 10° WSW 11:36:50 10° WSW daylight
26 Feb - 00:31:32 10° SSE 00:34:51 22° ESE 00:38:17 10° ENE visible
26 Feb - 02:12:32 10° SW 02:16:51 69° NW 02:21:24 10° NE visible
26 Feb - 03:56:30 10° WNW 04:00:06 24° NNW 04:03:53 10° NE visible
26 Feb - 05:40:50 10° NW 05:44:07 19° N 05:47:34 10° NE visible
26 Feb - 07:23:39 10° NW 07:27:56 32° NNE 07:32:33 10° E daylight
26 Feb - 09:05:58 10° NW 09:10:51 78° SW 09:16:11 10° SE daylight
26 Feb - 10:49:29 10° WNW 10:52:44 17° WSW 10:56:07 10° SSW daylight
26 Feb - 23:49:23 10° SE 23:51:27 13° ESE 23:53:31 10° E night (unlit)
27 Feb - 01:28:45 10° SSW 01:33:03 77° SE 01:37:34 10° NE visible
27 Feb - 03:12:07 10° W 03:15:59 29° NNW 03:20:04 10° NE visible
27 Feb - 04:56:39 10° NW 04:59:52 18° N 05:03:14 10° NE visible
27 Feb - 06:39:52 10° NNW 06:43:50 26° NNE 06:48:04 10° E daylight
27 Feb - 08:22:11 10° NW 08:27:02 72° NE 08:32:20 10° SE daylight
27 Feb - 10:05:03 10° WNW 10:09:13 27° WSW 10:13:40 10° S daylight
28 Feb - 00:45:15 10° SSW 00:49:22 46° ESE 00:53:41 10° NE visible
28 Feb - 02:27:49 10° WSW 02:31:56 39° NW 02:36:17 10° NE visible
28 Feb - 04:12:18 10° WNW 04:15:36 19° N 04:19:05 10° NE visible
28 Feb - 05:56:01 10° NW 05:59:40 22° NNE 06:03:32 10° ENE visible
28 Feb - 07:38:27 10° NW 07:43:08 50° NE 07:48:16 10° ESE daylight
28 Feb - 09:20:59 10° NW 09:25:37 41° WSW 09:30:39 10° S daylight
29 Feb - 00:02:06 10° S 00:05:47 28° ESE 00:09:37 10° ENE night (unlit)
29 Feb - 01:43:42 10° WSW 01:47:58 56° NW 01:52:30 10° NE visible
29 Feb - 03:27:53 10° WNW 03:31:23 22° NNW 03:35:05 10° NE visible
29 Feb - 05:12:02 10° NW 05:15:26 20° N 05:19:02 10° NE visible
29 Feb - 06:54:42 10° NW 06:59:09 37° NNE 07:03:59 10° E daylight
29 Feb - 08:37:04 10° NW 08:41:56 64° SW 08:47:15 10° SSE daylight
29 Feb - 10:21:09 10° WNW 10:23:39 14° WSW 10:26:15 10° SW daylight
29 Feb - 23:19:30 10° SSE 23:22:19 17° ESE 23:25:14 10° ENE night (unlit)
01 Mar - 00:59:47 10° SW 01:04:07 86° NW 01:08:43 10° NE visible
01 Mar - 02:43:28 10° W 02:47:13 26° NNW 02:51:12 10° NE visible
01 Mar - 04:27:55 10° NW 04:31:11 19° N 04:34:37 10° NE visible
01 Mar - 06:10:56 10° NW 06:15:06 29° NNE 06:19:34 10° E visible
01 Mar - 07:53:15 10° NW 07:58:10 86° NE 08:03:33 10° SE daylight
01 Mar - 09:36:22 10° WNW 09:40:11 22° WSW 09:44:15 10° SSW daylight
02 Mar - 00:16:08 10° SSW 00:20:23 60° SE 00:24:52 10° NE visible
02 Mar - 01:59:07 10° W 02:03:08 34° NNW 02:07:23 10° NE visible
02 Mar - 03:43:39 10° NW 03:46:56 19° N 03:50:23 10° NE visible
02 Mar - 05:27:07 10° NW 05:30:57 24° NNE 05:35:02 10° ENE visible
02 Mar - 07:09:28 10° NW 07:14:18 60° NE 07:19:35 10° ESE daylight
02 Mar - 08:52:09 10° NW 08:56:39 34° WSW 09:01:28 10° S daylight
02 Mar - 23:32:47 10° S 23:36:44 36° ESE 23:40:53 10° NE night (unlit)
03 Mar - 01:14:54 10° WSW 01:19:07 46° NW 01:23:36 10° NE visible
03 Mar - 02:59:15 10° WNW 03:02:41 21° NNW 03:06:18 10° NE visible
03 Mar - 04:43:12 10° NW 04:46:45 21° NNE 04:50:30 10° ENE visible
03 Mar - 06:25:44 10° NW 06:30:21 43° NE 06:35:23 10° ESE daylight
03 Mar - 08:08:10 10° NW 08:13:00 52° WSW 08:18:14 10° SSE daylight
03 Mar - 09:53:30 10° W 09:54:32 11° WSW 09:55:37 10° WSW daylight
03 Mar - 22:49:52 10° SSE 22:53:13 22° ESE 22:56:41 10° ENE night (unlit)
04 Mar - 00:30:53 10° SW 00:35:12 69° NW 00:39:49 10° NE visible
04 Mar - 02:14:49 10° WNW 02:18:29 24° NNW 02:22:21 10° NE visible
04 Mar - 03:59:09 10° NW 04:02:30 19° N 04:06:03 10° NE visible
04 Mar - 05:41:59 10° NW 05:46:19 33° NNE 05:51:02 10° E visible
04 Mar - 07:24:19 10° NW 07:29:15 78° SW 07:34:40 10° SE daylight
04 Mar - 09:07:48 10° WNW 09:11:08 18° WSW 09:14:38 10° SSW daylight
04 Mar - 22:07:43 10° SE 22:09:49 13° ESE 22:11:56 10° ENE night (unlit)
04 Mar - 23:47:05 10° SSW 23:51:24 77° SE 23:56:00 10° NE visible
05 Mar - 01:30:26 10° W 01:34:21 30° NNW 01:38:30 10° NE visible
05 Mar - 03:14:56 10° NW 03:18:14 19° N 03:21:42 10° NE visible
05 Mar - 04:58:11 10° NW 05:02:13 26° NNE 05:06:33 10° E visible
05 Mar - 06:40:31 10° NW 06:45:26 72° NE 06:50:50 10° SE daylight
05 Mar - 08:23:23 10° WNW 08:27:37 27° WSW 08:32:10 10° S daylight
05 Mar - 23:03:34 10° SSW 23:07:43 47° ESE 23:12:05 10° NE night (unlit)
